Wind_Speed
30 30 30 30 30 30 30 30 30 30 29 29 29 29 29 29 30 30 29 28 27 27 27 26 25 25 24 25 25 24 24 25 25 24 25 25 24 24
29 29 29 29 29 30 30 30 30 29 29 29 29 29 29 29 29 29 28 28 29 28 27 26 25 25 26 25 25 25 26 26 26 24 24 24 24 24
29 28 28 28 28 29 29 29 29 29 29 29 30 30 28 28 28 28 29 28 28 27 26 26 26 26 26 26 26 25 25 25 25 25 24 23 23 23
28 28 27 27 28 28 28 28 28 29 29 28 28 29 29 28 28 28 28 28 28 27 26 25 26 26 26 26 26 26 25 24 24 23 23 23 23 23
27 27 27 27 27 27 28 27 27 27 27 27 27 28 28 28 27 27 27 27 27 27 26 26 26 26 26 26 26 25 25 25 24 24 23 23 23 22
26 26 26 26 26 26 26 27 27 26 26 26 27 26 27 27 27 27 27 26 26 26 26 25 25 25 25 25 26 26 26 25 25 25 24 24 23 23
24 24 24 24 24 25 25 25 26 25 25 26 26 26 26 26 26 27 27 26 26 25 25 25 24 25 25 25 26 26 25 25 25 24 24 24 24 24
22 22 23 23 24 24 24 24 25 25 24 25 25 25 25 26 25 25 26 26 26 26 26 25 25 25 26 26 26 25 25 24 24 23 23 24 24 23
21 21 22 22 23 23 23 23 23 24 24 25 25 25 25 25 25 25 25 25 25 26 26 25 25 25 25 25 25 25 24 24 23 23 23 23 23 23
19 20 21 21 21 22 22 22 22 23 23 23 24 24 25 25 25 24 24 25 25 25 25 25 25 24 23 23 23 23 23 23 23 23 23 23 23 23
18 19 18 18 19 19 19 20 20 20 21 21 22 23 24 24 25 25 25 24 24 24 23 23 22 22 22 22 22 22 22 22 22 22 22 22 22 22
18 17 16 17 16 16 16 16 16 17 18 18 19 21 21 22 22 23 24 24 24 24 23 23 22 22 22 22 22 22 21 21 21 21 21 21 21 21
16 14 14 14 13 13 13 13 13 14 15 16 17 18 19 20 20 21 22 22 23 23 23 22 22 22 22 22 21 21 21 21 20 20 21 21 21 21
13 13 13 13 12 11 11 11 12 12 14 15 16 16 17 17 18 19 20 21 22 22 22 22 22 21 20 19 19 20 19 19 19 19 20 20 20 20
13 13 12 12 11 11 10 10 11 12 12 13 13 13 14 15 17 18 18 19 20 20 21 21 21 20 19 19 19 19 18 18 19 19 19 19 19 19
12 12 11 11 10 10 10 9 9 10 10 10 11 12 13 14 15 15 16 17 18 18 18 19 19 19 19 18 18 18 18 17 18 18 18 19 19 18
11 11 11 10 9 9 8 8 7 7 8 9 9 10 11 12 12 13 14 15 16 17 18 18 18 19 19 19 18 18 18 17 17 17 17 17 17 17
11 10 10 9 8 8 8 7 7 7 7 8 8 8 9 10 10 11 12 13 14 15 16 16 17 17 18 18 18 17 17 17 17 17 17 17 17 18
10 10 10 9 8 8 8 8 8 8 8 8 8 8 9 9 10 10 12 13 14 15 16 17 17 17 17 17 17 17 17 17 17 18 18 18 18 18
11 10 10 9 9 9 9 9 9 9 9 8 8 9 10 10 11 11 12 12 13 14 15 16 16 16 17 17 17 17 18 18 18 19 19 19 19 19
12 11 11 10 10 10 11 11 10 10 10 10 10 11 11 12 13 13 14 14 14 15 16 16 17 17 18 18 18 18 19 19 20 20 20 20 20 20
13 13 13 12 12 12 12 12 12 12 11 11 11 12 12 13 14 14 14 15 16 16 16 17 18 19 19 20 20 19 19 20 20 21 21 22 22 22
14 14 13 13 13 13 13 13 13 12 12 12 13 13 13 14 14 14 14 15 16 17 17 18 18 19 19 20 21 21 22 22 22 22 22 23 23 24
Wind_Direction
278 277 275 273 272 269 266 266 266 265 265 265 265 264 263 261 261 260 258 257 257 259 260 259 258 259 258 258 258 260 264 266 268 269 270 269 274 275
278 276 275 273 271 270 268 266 265 265 264 263 264 263 261 260 259 258 256 256 258 260 260 257 256 257 257 259 261 263 263 263 265 268 270 270 273 274
279 278 276 274 271 269 267 266 265 264 263 261 261 260 260 259 257 257 258 257 256 257 257 256 255 255 256 259 261 263 263 264 265 267 269 270 272 273
279 278 276 274 272 270 267 266 265 263 262 261 260 258 258 257 256 256 255 255 254 255 256 257 256 254 255 257 259 261 261 263 264 266 267 269 271 273
280 279 277 275 273 270 269 267 266 264 262 260 259 259 258 256 253 254 255 254 254 254 255 256 256 254 253 255 258 259 260 262 264 264 265 268 270 269
283 280 279 277 274 271 269 267 266 264 261 259 259 258 259 258 254 254 253 254 253 253 253 254 256 253 253 256 258 259 260 262 264 264 265 267 269 269
286 284 281 279 276 273 270 266 264 262 259 259 258 257 257 258 257 255 253 252 252 252 252 252 255 256 256 257 258 260 260 261 262 263 265 267 269 270
286 284 281 279 276 274 270 267 264 261 259 259 258 257 256 257 257 255 253 252 251 252 252 253 254 257 259 258 257 258 258 260 263 264 266 267 268 269
289 285 283 280 277 274 272 268 264 261 259 258 257 257 256 257 256 254 252 252 251 252 253 254 255 257 258 256 255 256 257 259 260 262 264 266 267 268
292 290 287 282 277 276 273 269 265 263 260 258 256 256 255 255 254 254 254 253 252 251 251 253 253 253 255 255 255 257 258 260 260 262 263 264 265 267
296 295 293 289 284 278 275 270 265 263 259 258 256 254 253 252 251 251 252 252 251 251 250 251 251 252 254 255 256 257 259 260 260 261 262 263 265 267
301 298 295 295 291 285 277 272 267 262 259 258 256 256 254 252 249 249 249 249 249 248 249 249 250 251 253 255 256 256 256 258 259 259 261 263 265 268
308 304 303 302 298 291 283 273 268 263 260 259 259 257 253 251 249 249 248 248 247 247 247 248 249 250 252 253 253 253 255 257 258 258 260 263 265 268
318 315 313 312 306 298 290 279 273 268 263 260 259 256 253 250 249 249 249 248 246 244 244 246 246 247 249 251 252 252 254 256 258 259 262 264 265 268
325 326 321 317 315 307 299 290 280 275 271 266 260 257 253 252 251 250 249 248 245 245 243 243 244 245 247 250 253 254 256 257 258 260 262 263 265 267
330 328 327 324 321 317 304 299 289 281 274 267 263 260 256 254 251 248 248 246 244 244 243 244 244 244 246 249 253 255 257 258 259 260 260 263 265 267
339 335 332 331 327 324 318 312 306 296 286 278 269 262 254 250 249 249 249 244 243 243 243 244 245 245 248 250 253 254 255 257 258 260 262 265 268 270
346 344 339 337 336 336 331 324 316 305 295 287 279 270 260 254 254 251 249 247 246 245 244 245 246 248 248 249 250 250 252 255 258 262 264 265 267 271
344 344 341 337 337 334 331 325 320 314 305 292 281 271 261 259 259 257 254 253 252 250 248 247 247 247 246 246 249 253 256 257 260 263 266 268 270 272
345 342 338 337 338 336 331 326 323 317 307 296 286 275 268 266 264 263 261 259 257 254 252 249 248 247 247 250 253 257 259 261 263 265 266 269 271 273
338 336 334 330 328 327 327 325 321 317 311 302 292 284 276 271 268 266 264 263 263 259 256 254 252 252 252 253 255 258 261 262 265 267 268 270 271 271
336 331 326 321 319 319 320 319 317 313 309 304 296 288 282 277 273 269 266 266 265 264 263 261 258 257 257 258 259 261 262 264 265 266 268 270 271 273
332 330 328 324 319 316 317 317 316 314 308 304 300 293 285 278 272 270 271 271 269 267 265 264 262 262 262 263 264 265 266 266 267 268 269 272 274 275
Height
5754 5753 5753 5753 5754 5754 5755 5757 5759 5760 5761 5762 5763 5764 5765 5767 5768 5770 5772 5773 5775 5777 5778 5779 5780 5782 5783 5785 5786 5787 5788 5789 5789 5790 5790 5790 5791 5790
5745 5745 5745 5745 5745 5746 5746 5748 5749 5751 5752 5754 5755 5756 5757 5758 5760 5761 5763 5765 5767 5769 5770 5771 5773 5774 5776 5777 5779 5780 5781 5782 5782 5783 5783 5783 5784 5783
5738 5737 5737 5737 5737 5737 5738 5739 5741 5742 5743 5745 5746 5747 5749 5750 5751 5753 5755 5757 5759 5761 5762 5764 5766 5767 5769 5770 5772 5773 5774 5774 5775 5776 5776 5777 5776 5776
5730 5729 5729 5729 5729 5729 5730 5731 5732 5733 5734 5736 5737 5739 5740 5742 5743 5745 5747 5749 5752 5753 5755 5757 5758 5760 5761 5763 5764 5765 5766 5767 5768 5769 5769 5770 5770 5770
5722 5721 5721 5721 5721 5721 5721 5722 5723 5724 5726 5727 5729 5731 5732 5733 5735 5737 5739 5742 5744 5746 5748 5749 5751 5753 5754 5756 5757 5758 5759 5760 5761 5762 5762 5763 5763 5763
5714 5714 5713 5713 5713 5713 5713 5714 5715 5716 5718 5719 5721 5723 5724 5725 5727 5729 5732 5734 5736 5738 5740 5742 5744 5745 5747 5748 5750 5751 5752 5753 5754 5754 5755 5756 5756 5756
5707 5707 5706 5706 5705 5705 5706 5706 5707 5708 5710 5711 5713 5715 5716 5718 5720 5722 5724 5726 5728 5730 5733 5735 5736 5738 5739 5740 5742 5743 5744 5745 5746 5747 5748 5748 5749 5749
5701 5700 5699 5699 5698 5698 5698 5699 5700 5701 5702 5703 5705 5707 5709 5710 5712 5714 5716 5719 5721 5723 5725 5727 5729 5730 5732 5733 5734 5736 5737 5738 5739 5739 5740 5741 5741 5742
5696 5694 5693 5692 5691 5691 5691 5691 5692 5693 5694 5696 5698 5699 5701 5703 5705 5707 5709 5711 5713 5715 5717 5719 5721 5723 5724 5725 5727 5728 5730 5731 5731 5732 5733 5734 5734 5734
5691 5689 5688 5686 5685 5684 5684 5684 5685 5686 5687 5689 5690 5692 5694 5695 5697 5700 5701 5704 5706 5708 5710 5712 5714 5715 5717 5718 5720 5721 5722 5723 5724 5725 5726 5726 5727 5727
5686 5684 5682 5681 5680 5679 5678 5678 5678 5679 5680 5681 5683 5684 5686 5688 5690 5692 5694 5697 5699 5701 5703 5705 5706 5708 5710 5711 5713 5714 5715 5716 5717 5718 5718 5719 5720 5720
5682 5680 5678 5676 5675 5673 5673 5673 5673 5673 5674 5675 5676 5678 5679 5681 5683 5685 5687 5689 5691 5694 5696 5698 5700 5701 5703 5705 5706 5707 5708 5709 5710 5711 5711 5712 5713 5713
5678 5676 5675 5673 5671 5670 5669 5668 5668 5669 5669 5670 5671 5672 5673 5675 5677 5679 5680 5683 5685 5687 5689 5691 5693 5695 5697 5698 5699 5700 5701 5702 5703 5704 5705 5705 5706 5706
5676 5674 5672 5670 5668 5667 5666 5665 5665 5665 5665 5665 5666 5667 5668 5669 5671 5673 5674 5676 5678 5681 5683 5685 5686 5688 5690 5692 5693 5694 5695 5696 5697 5697 5698 5698 5699 5699
5673 5671 5669 5668 5666 5665 5664 5663 5662 5662 5662 5662 5662 5663 5664 5665 5666 5667 5669 5671 5672 5674 5677 5678 5680 5682 5684 5685 5687 5688 5689 5690 5690 5691 5692 5692 5692 5692
5672 5670 5668 5666 5664 5663 5661 5660 5660 5659 5659 5659 5659 5659 5660 5660 5661 5662 5664 5665 5667 5669 5671 5673 5674 5676 5678 5679 5680 5681 5683 5683 5684 5685 5686 5686 5686 5686
5671 5669 5667 5665 5663 5661 5660 5659 5658 5657 5657 5656 5656 5656 5656 5657 5658 5658 5660 5661 5662 5664 5666 5667 5669 5670 5672 5673 5675 5676 5677 5678 5679 5679 5680 5680 5680 5680
5670 5668 5666 5664 5662 5661 5659 5658 5657 5656 5655 5655 5654 5654 5654 5654 5655 5655 5656 5657 5658 5660 5661 5662 5664 5665 5667 5668 5669 5670 5671 5672 5673 5674 5674 5674 5675 5674
5669 5667 5665 5664 5662 5660 5658 5657 5655 5654 5653 5652 5652 5651 5652 5652 5652 5653 5653 5654 5654 5655 5656 5658 5659 5660 5661 5663 5664 5665 5666 5666 5667 5668 5668 5668 5668 5668
5669 5667 5665 5663 5661 5659 5657 5655 5654 5653 5651 5650 5649 5649 5649 5649 5649 5650 5650 5650 5651 5651 5652 5653 5654 5655 5656 5657 5658 5659 5660 5660 5661 5661 5661 5661 5661 5661
5668 5666 5664 5661 5660 5658 5656 5654 5652 5651 5649 5648 5647 5646 5646 5646 5646 5646 5646 5646 5646 5647 5647 5648 5649 5649 5650 5651 5653 5653 5654 5654 5654 5654 5654 5654 5655 5654
5666 5664 5662 5660 5658 5656 5654 5652 5650 5648 5647 5646 5645 5643 5643 5642 5642 5641 5641 5641 5641 5641 5642 5642 5643 5643 5644 5645 5646 5647 5647 5647 5647 5647 5647 5647 5647 5647
5665 5662 5660 5658 5655 5654 5652 5650 5648 5646 5644 5643 5641 5640 5639 5638 5637 5637 5637 5636 5636 5636 5636 5636 5637 5637 5637 5638 5639 5639 5639 5639 5639 5640 5640 5639 5639 5638